Vertical_Velocity
1 -2 -0 -2 0 -1 -1 -0 0 1 -0 -3 0 0 0 -1 -1 -1 -1 -1 -2 -1 -0 -3 -1 -1 -1 -1 0 -1 -3 -2 -3
-1 0 -2 1 -1 -2 -2 -1 -1 -2 -2 -2 -1 -2 -1 -2 -0 -0 -1 -0 -1 0 0 1 -0 -0 1 1 -0 -0 -0 -0 0
-2 -1 1 -1 -0 -3 -1 -1 -1 -1 -2 -1 -3 -2 -1 -0 1 -2 0 1 -2 0 0 1 -0 -0 -2 -2 -0 -1 -2 1 1
-1 1 0 -1 -2 -1 -3 -2 -0 -2 -2 -2 -1 -2 -0 -2 -1 -1 -1 -1 -2 -1 -1 -0 -1 -1 -1 -2 -1 -2 -3 -3 -0
-2 -2 -4 -3 -3 -2 -1 -1 -2 -3 -3 -2 -0 -1 -3 2 -1 -4 -2 -1 -1 -1 -1 -0 -1 1 -3 -3 -1 -0 1 -1 -2
-4 -4 -2 -2 -2 -2 -2 -2 -3 -3 -3 -3 -3 -2 -3 2 -3 -1 -2 -1 -3 -3 -3 -1 -1 -1 -1 0 -4 -3 -2 0 -0
-2 -2 -2 -2 -1 -1 -1 -1 -2 -2 -2 -2 -3 -4 -3 -1 -1 -1 -2 -3 -2 -1 -0 -1 -1 -1 -2 -1 -2 -2 -5 -2 -2
1 -1 -1 -0 -1 -1 -1 -2 -1 -1 -0 -2 -2 -1 -4 -1 -2 -1 -0 -3 -2 -2 -2 -1 -3 2 -1 -0 -0 0 -4 -1 -2
-0 0 0 1 2 1 -1 -0 -2 -1 -0 -2 -0 -1 -1 0 -1 -2 -1 -3 -1 -2 0 -3 0 0 0 1 -0 -1 -1 -1 -2
-0 -0 1 2 2 2 3 0 0 -1 0 4 3 -2 -2 -2 -1 2 -0 -0 -2 -1 -1 -1 -2 -1 0 -1 1 0 -0 -0 -1
1 3 2 1 2 2 -0 2 -0 2 -2 -0 -1 1 -0 -1 -1 0 2 1 1 0 -1 -2 -3 1 -1 -0 -0 -2 -1 -0 -0
0 -0 2 3 3 2 2 1 2 2 4 2 -0 0 1 1 -2 -2 0 0 -0 1 2 1 -0 -1 -2 -1 -0 -0 -1 -1 -1
-1 -2 -2 -1 -1 -0 0 -1 -0 -1 -0 -0 -1 2 2 2 0 1 -4 5 -1 -4 2 3 -0 1 3 -0 -1 -1 -2 -2 -2
-0 -1 -1 -1 -1 -0 1 -0 0 -3 -1 -1 -1 -1 -0 2 2 0 3 -5 4 1 -3 -0 0 1 1 3 2 2 0 1 0
-1 -0 -0 -2 -2 -1 1 3 0 -1 1 1 -2 -1 -2 0 1 1 3 0 -2 4 -1 -3 2 1 0 2 1 2 1 1 1
1 1 1 1 0 1 -1 -1 -1 0 3 0 -0 2 -2 -1 -2 -3 -2 2 3 -1 2 3 1 1 1 0 -0 1 1 -0 -2
-2 -0 2 0 -2 -1 0 -1 -0 -0 1 1 2 -4 -3 1 4 1 3 0 -0 4 3 0 0 -1 2 0 -1 1 1 -0 -0
3 -0 -1 2 1 2 2 -0 2 2 0 -1 4 -5 -5 2 3 5 3 4 3 3 4 6 4 4 1 1 5 4 3 2 2
0 3 2 -2 -2 -2 6 -1 4 3 6 6 -0 4 5 0 -8 2 7 4 2 3 4 1 -8 1 3 5 3 9 6 2 3
8 6 2 -3 -3 0 1 -1 2 6 1 8 8 -1 -1 -2 3 -3 6 9 2 7 9 3 -1 -0 -1 12 -0 -2 9 7 -1
Height
3193 3193 3192 3192 3192 3191 3191 3191 3191 3191 3191 3191 3191 3191 3192 3191 3191 3190 3190 3190 3189 3189 3189 3189 3188 3188 3187 3186 3185 3185 3185 3185 3184
3194 3194 3193 3193 3193 3192 3192 3193 3193 3192 3192 3192 3192 3192 3192 3191 3191 3191 3191 3190 3190 3190 3189 3188 3188 3187 3186 3186 3185 3184 3184 3184 3183
3195 3195 3194 3194 3194 3194 3194 3194 3194 3194 3193 3193 3193 3193 3193 3193 3193 3192 3191 3191 3190 3190 3189 3188 3187 3187 3186 3185 3184 3184 3183 3183 3182
3196 3195 3196 3196 3196 3196 3196 3196 3195 3195 3195 3194 3194 3194 3194 3193 3193 3193 3192 3191 3190 3189 3189 3188 3187 3186 3185 3184 3183 3183 3182 3182 3181
3197 3197 3197 3197 3197 3197 3197 3197 3197 3197 3196 3195 3195 3195 3195 3195 3194 3193 3192 3191 3190 3189 3188 3187 3186 3185 3184 3183 3183 3182 3181 3180 3180
3197 3197 3197 3198 3198 3197 3198 3198 3198 3197 3196 3196 3196 3196 3195 3195 3194 3193 3192 3191 3190 3189 3188 3186 3185 3185 3184 3183 3182 3181 3180 3179 3178
3196 3196 3197 3197 3197 3198 3198 3198 3198 3197 3196 3196 3195 3194 3194 3194 3193 3192 3191 3189 3188 3187 3186 3185 3184 3184 3182 3181 3181 3180 3179 3178 3177
3194 3195 3195 3196 3196 3196 3197 3197 3197 3196 3195 3194 3194 3193 3193 3192 3191 3191 3190 3188 3187 3185 3184 3184 3182 3181 3181 3180 3179 3178 3178 3177 3176
3192 3193 3193 3194 3194 3194 3194 3194 3194 3194 3193 3192 3191 3191 3191 3191 3190 3189 3188 3186 3185 3183 3182 3181 3180 3179 3178 3178 3177 3177 3176 3175 3175
3190 3190 3191 3191 3191 3191 3191 3191 3190 3191 3191 3190 3189 3188 3188 3188 3187 3186 3185 3183 3182 3181 3179 3179 3178 3177 3176 3175 3175 3174 3174 3173 3173
3187 3187 3187 3187 3188 3188 3188 3187 3187 3187 3186 3186 3185 3185 3183 3184 3184 3182 3181 3180 3178 3178 3177 3176 3175 3174 3173 3172 3172 3171 3171 3170 3170
3182 3183 3184 3184 3185 3184 3185 3184 3184 3184 3183 3182 3181 3180 3180 3179 3180 3179 3178 3177 3175 3174 3173 3172 3171 3170 3170 3169 3169 3168 3168 3168 3167
3178 3178 3179 3179 3180 3180 3179 3179 3179 3178 3177 3177 3176 3176 3175 3174 3173 3174 3174 3173 3172 3170 3169 3168 3167 3166 3166 3165 3164 3164 3164 3163 3162
3173 3173 3173 3173 3174 3174 3174 3174 3173 3173 3173 3172 3171 3170 3170 3169 3167 3168 3169 3168 3167 3165 3165 3164 3163 3162 3162 3161 3160 3159 3159 3158 3157
3169 3169 3168 3168 3168 3169 3169 3168 3167 3168 3167 3165 3164 3163 3163 3163 3162 3160 3161 3162 3162 3161 3160 3159 3158 3156 3156 3155 3155 3154 3153 3152 3151
3163 3163 3163 3162 3162 3163 3162 3162 3161 3161 3160 3158 3158 3156 3156 3156 3157 3155 3154 3154 3156 3155 3154 3153 3152 3151 3150 3149 3148 3147 3147 3146 3145
3156 3157 3157 3156 3154 3155 3156 3155 3154 3154 3153 3152 3150 3148 3149 3150 3150 3148 3147 3146 3146 3147 3146 3147 3146 3145 3143 3142 3141 3140 3139 3138 3137
3148 3147 3148 3148 3148 3147 3147 3148 3147 3146 3145 3144 3144 3141 3140 3142 3143 3143 3141 3140 3138 3137 3138 3137 3137 3136 3135 3134 3134 3133 3131 3130 3129
3139 3139 3138 3138 3139 3140 3140 3138 3138 3138 3138 3135 3135 3134 3133 3133 3132 3134 3133 3131 3130 3129 3127 3126 3125 3126 3125 3124 3122 3121 3120 3119 3118
3133 3132 3130 3130 3130 3130 3130 3131 3131 3129 3128 3128 3127 3126 3126 3124 3123 3122 3124 3122 3119 3117 3115 3116 3116 3114 3115 3113 3110 3108 3106 3105 3106